Илинденци, Иван Янев, 20.08.2024 Measurements

Back to Overview

Timestamp Temperature Humidity
5/4/2026 5:41:32 PM 21,4 C 32.0%
5/4/2026 5:34:30 PM 21,8 C 32.0%
5/4/2026 5:27:29 PM 21,9 C 33.0%
5/4/2026 5:20:27 PM 21,8 C 33.0%
5/4/2026 5:13:24 PM 21,5 C 32.0%
5/4/2026 5:06:21 PM 21,1 C 34.0%
5/4/2026 4:59:19 PM 20,5 C 33.0%
5/4/2026 4:52:17 PM 20,3 C 34.0%
5/4/2026 4:45:15 PM 20,2 C 32.0%
5/4/2026 4:38:12 PM 20,5 C 33.0%
5/4/2026 4:31:09 PM 20,2 C 33.0%
5/4/2026 4:24:06 PM 20,2 C 32.0%
5/4/2026 4:17:04 PM 20,5 C 33.0%
5/4/2026 4:09:59 PM 20,2 C 34.0%
5/4/2026 4:02:57 PM 20,2 C 33.0%
5/4/2026 3:55:53 PM 20,6 C 33.0%
5/4/2026 3:48:52 PM 21,0 C 31.0%
5/4/2026 3:41:50 PM 20,7 C 34.0%
5/4/2026 3:34:47 PM 20,5 C 34.0%
5/4/2026 3:27:44 PM 20,5 C 34.0%
5/4/2026 3:20:41 PM 20,1 C 36.0%
5/4/2026 3:13:38 PM 19,7 C 34.0%
5/4/2026 3:06:37 PM 19,7 C 34.0%
5/4/2026 2:59:35 PM 19,4 C 34.0%
5/4/2026 2:52:32 PM 19,3 C 35.0%
5/4/2026 2:45:30 PM 19,5 C 35.0%
5/4/2026 2:38:28 PM 19,1 C 37.0%
5/4/2026 2:31:27 PM 18,9 C 37.0%
5/4/2026 2:24:25 PM 18,9 C 37.0%
5/4/2026 2:17:23 PM 18,5 C 38.0%
5/4/2026 2:10:22 PM 18,1 C 39.0%
5/4/2026 2:03:19 PM 17,9 C 37.0%
5/4/2026 1:56:17 PM 17,6 C 38.0%
5/4/2026 1:49:14 PM 17,8 C 39.0%
5/4/2026 1:42:12 PM 17,4 C 39.0%
5/4/2026 1:35:09 PM 17,0 C 40.0%
5/4/2026 1:28:08 PM 16,9 C 39.0%
5/4/2026 1:21:05 PM 16,9 C 39.0%
5/4/2026 1:14:03 PM 16,4 C 40.0%
5/4/2026 1:07:01 PM 16,1 C 40.0%
5/4/2026 12:59:57 PM 15,9 C 41.0%
5/4/2026 12:52:56 PM 16,0 C 41.0%
5/4/2026 12:45:52 PM 15,6 C 43.0%
5/4/2026 12:38:50 PM 15,2 C 43.0%
5/4/2026 12:31:46 PM 15,3 C 41.0%
5/4/2026 12:24:43 PM 15,2 C 43.0%
5/4/2026 12:17:41 PM 14,8 C 45.0%
5/4/2026 12:10:38 PM 14,7 C 45.0%
5/4/2026 12:03:38 PM 14,8 C 45.0%
5/4/2026 11:56:36 AM 14,3 C 44.0%
5/4/2026 11:49:33 AM 13,8 C 45.0%
5/4/2026 11:42:31 AM 13,8 C 46.0%
5/4/2026 11:35:27 AM 13,2 C 48.0%
5/4/2026 11:28:24 AM 12,6 C 46.0%
5/4/2026 11:21:21 AM 12,7 C 46.0%
5/4/2026 11:14:20 AM 12,5 C 48.0%
5/4/2026 11:07:16 AM 12,0 C 50.0%
5/4/2026 11:00:14 AM 11,7 C 49.0%
5/4/2026 10:53:12 AM 11,4 C 48.0%
5/4/2026 10:46:08 AM 11,4 C 50.0%
5/4/2026 10:39:06 AM 11,2 C 50.0%
5/4/2026 10:32:03 AM 11,2 C 52.0%
5/4/2026 10:25:01 AM 10,9 C 52.0%
5/4/2026 10:17:57 AM 10,4 C 53.0%
5/4/2026 10:10:55 AM 10,4 C 53.0%
5/4/2026 10:03:53 AM 10,2 C 54.0%
5/4/2026 9:56:50 AM 10,1 C 54.0%
5/4/2026 9:49:48 AM 9,9 C 55.0%
5/4/2026 9:42:44 AM 9,6 C 55.0%
5/4/2026 9:35:42 AM 9,1 C 55.0%
5/4/2026 9:28:41 AM 8,6 C 55.0%
5/4/2026 9:21:39 AM 8,4 C 56.0%
5/4/2026 9:14:37 AM 8,3 C 56.0%
5/4/2026 9:07:34 AM 7,9 C 58.0%
5/4/2026 9:00:31 AM 7,8 C 58.0%
5/4/2026 8:53:29 AM 7,2 C 59.0%
5/4/2026 8:46:26 AM 6,7 C 60.0%
5/4/2026 8:39:23 AM 6,3 C 60.0%
5/4/2026 8:32:19 AM 6,2 C 60.0%
5/4/2026 8:25:17 AM 6,1 C 60.0%
5/4/2026 8:18:14 AM 5,9 C 60.0%
5/4/2026 8:11:13 AM 5,8 C 60.0%
5/4/2026 8:04:11 AM 5,6 C 60.0%
5/4/2026 7:57:06 AM 5,4 C 61.0%
5/4/2026 7:50:05 AM 5,3 C 60.0%
5/4/2026 7:43:02 AM 5,0 C 61.0%
5/4/2026 7:36:00 AM 4,9 C 61.0%
5/4/2026 7:29:00 AM 4,6 C 61.0%
5/4/2026 7:21:57 AM 4,5 C 60.0%
5/4/2026 7:14:55 AM 4,7 C 60.0%
5/4/2026 7:07:52 AM 4,8 C 61.0%
5/4/2026 7:00:51 AM 4,7 C 61.0%
5/4/2026 6:53:50 AM 4,5 C 62.0%
5/4/2026 6:46:47 AM 4,3 C 62.0%
5/4/2026 6:39:44 AM 4,0 C 61.0%
5/4/2026 6:32:41 AM 3,9 C 61.0%
5/4/2026 6:25:37 AM 4,0 C 59.0%
5/4/2026 6:18:36 AM 4,3 C 58.0%
5/4/2026 6:11:33 AM 4,6 C 58.0%
5/4/2026 6:04:32 AM 5,1 C 57.0%
5/4/2026 5:57:29 AM 5,5 C 56.0%
5/4/2026 5:50:27 AM 5,5 C 57.0%
5/4/2026 5:43:25 AM 5,1 C 58.0%
5/4/2026 5:36:24 AM 4,9 C 58.0%
5/4/2026 5:29:23 AM 5,1 C 57.0%
5/4/2026 5:22:21 AM 5,2 C 57.0%
5/4/2026 5:15:19 AM 5,5 C 57.0%
5/4/2026 5:08:18 AM 5,7 C 56.0%
5/4/2026 5:01:14 AM 5,8 C 56.0%
5/4/2026 4:54:12 AM 6,0 C 55.0%
5/4/2026 4:47:11 AM 6,0 C 55.0%
5/4/2026 4:40:08 AM 6,3 C 54.0%
5/4/2026 4:33:07 AM 6,5 C 54.0%
5/4/2026 4:26:02 AM 6,7 C 53.0%
5/4/2026 4:19:01 AM 7,0 C 53.0%
5/4/2026 4:12:00 AM 7,2 C 52.0%
5/4/2026 4:04:59 AM 7,2 C 52.0%
5/4/2026 3:57:56 AM 7,3 C 52.0%
5/4/2026 3:50:56 AM 7,4 C 52.0%
5/4/2026 3:43:52 AM 7,4 C 52.0%
5/4/2026 3:36:49 AM 7,5 C 52.0%
5/4/2026 3:29:46 AM 7,6 C 52.0%
5/4/2026 3:22:43 AM 7,6 C 52.0%
5/4/2026 3:15:40 AM 7,6 C 52.0%
5/4/2026 3:08:36 AM 7,4 C 52.0%
5/4/2026 3:01:35 AM 7,4 C 52.0%
5/4/2026 2:54:33 AM 7,5 C 52.0%
5/4/2026 2:47:32 AM 7,4 C 52.0%
5/4/2026 2:40:28 AM 7,5 C 52.0%
5/4/2026 2:33:26 AM 7,3 C 52.0%
5/4/2026 2:26:23 AM 7,2 C 52.0%
5/4/2026 2:19:20 AM 7,3 C 52.0%
5/4/2026 2:12:17 AM 7,2 C 52.0%
5/4/2026 2:05:16 AM 7,3 C 52.0%
5/4/2026 1:58:13 AM 7,4 C 52.0%
5/4/2026 1:51:11 AM 7,6 C 52.0%
5/4/2026 1:44:07 AM 7,7 C 52.0%
5/4/2026 1:37:04 AM 7,8 C 52.0%
5/4/2026 1:30:02 AM 7,8 C 52.0%
5/4/2026 1:23:00 AM 7,8 C 52.0%
5/4/2026 1:15:57 AM 7,7 C 52.0%
5/4/2026 1:08:54 AM 7,8 C 52.0%
5/4/2026 1:01:50 AM 7,9 C 51.0%
5/4/2026 12:54:47 AM 8,2 C 51.0%
5/4/2026 12:47:45 AM 8,3 C 50.0%
5/4/2026 12:40:42 AM 8,3 C 50.0%
5/4/2026 12:33:38 AM 8,3 C 50.0%
5/4/2026 12:26:34 AM 8,3 C 51.0%
5/4/2026 12:19:33 AM 8,4 C 50.0%
5/4/2026 12:12:32 AM 8,5 C 50.0%
5/4/2026 12:05:30 AM 8,6 C 50.0%